Temp
18 20 22 23 24 26 27 28 31 30 28 30 29 30 29 31 30 27 18 16 18 17 16 15 15 15 15 15 15 15 16 15 16 16 16 16 16 16 16 16 16 17 17 17 17 17 17 17 17
20 21 23 26 24 26 28 30 30 29 29 26 26 26 26 28 24 17 16 15 17 16 15 14 15 14 15 15 15 15 15 15 15 15 15 15 15 15 15 15 15 15 15 15 16 16 16 16 16
21 22 25 25 25 26 28 29 29 29 25 25 25 24 26 25 21 19 17 15 16 14 13 14 14 14 14 14 14 14 14 14 14 14 14 14 14 14 14 14 14 14 14 14 15 15 15 15 15
21 23 24 24 25 28 28 30 26 26 24 24 25 25 22 18 19 18 15 15 14 13 14 14 14 14 14 14 14 14 14 13 14 13 13 13 13 13 13 12 12 13 13 13 13 14 14 14 14
21 24 23 24 25 28 29 29 29 26 27 26 24 25 24 17 15 15 14 13 14 12 13 13 13 14 13 13 13 13 13 13 13 13 12 12 12 12 12 11 11 11 12 12 12 13 13 13 15
22 24 23 24 26 28 29 30 28 27 28 26 24 25 24 15 14 14 13 12 12 12 12 13 13 13 13 13 12 12 12 12 12 12 11 11 11 11 10 10 10 10 10 10 10 10 10 11 13
22 23 23 25 26 27 29 30 28 27 27 28 25 25 20 15 14 13 13 11 10 12 12 12 12 12 12 12 11 11 11 11 10 10 9 9 9 9 9 9 9 9 8 8 8 8 9 11 14
22 23 22 24 25 26 27 26 26 25 26 23 25 25 25 18 13 13 11 10 9 10 11 12 11 11 11 10 10 9 9 9 8 8 7 7 7 7 7 7 7 7 7 7 7 8 8 10 12
21 21 22 24 25 26 26 25 25 21 23 22 22 21 17 14 12 12 10 8 8 9 10 11 10 10 10 9 8 7 6 6 6 7 7 7 8 7 5 5 5 5 5 5 6 8 9 10 11
20 21 22 25 26 26 27 24 25 22 23 22 21 16 14 12 12 12 10 9 8 8 8 9 9 9 8 8 8 6 5 6 6 7 8 7 6 5 6 7 7 7 7 8 8 9 9 8 9
21 20 24 25 24 23 23 24 23 22 23 25 24 22 14 13 13 13 12 11 9 8 7 8 8 8 8 7 6 5 5 5 6 6 6 6 6 6 6 6 6 6 6 6 6 7 8 7 8
20 21 22 23 24 22 22 23 23 22 22 25 23 24 15 14 14 13 13 12 10 8 7 7 7 8 7 6 6 6 6 6 6 5 5 6 6 6 6 6 6 6 7 7 6 6 6 6 7
21 21 22 23 21 21 21 21 21 22 23 24 22 20 16 15 15 14 13 13 11 8 7 7 7 7 7 7 7 7 6 6 5 4 4 5 5 5 5 5 5 5 5 6 6 7 7 6 6
22 21 21 21 21 21 20 20 20 22 23 22 22 18 18 16 16 15 13 13 12 10 8 7 7 7 6 7 7 6 6 5 4 4 3 4 4 4 4 4 4 4 4 4 4 5 6 6 6
20 18 20 20 20 20 20 18 19 21 22 22 21 20 18 17 16 15 14 13 12 10 9 8 7 6 6 6 6 5 5 4 4 3 3 3 3 4 3 4 4 3 3 4 4 4 5 5 6
18 19 18 22 21 20 18 19 23 22 21 21 20 20 18 17 16 15 14 12 11 10 8 7 6 6 5 5 5 4 4 4 3 3 2 2 2 3 3 3 2 2 3 3 4 4 5 5 5
19 19 20 21 20 19 17 20 22 20 19 20 21 20 19 17 15 14 13 11 10 9 8 6 5 5 4 4 4 4 4 3 3 2 2 1 1 2 2 1 1 2 2 3 3 3 4 5 5
19 20 21 20 19 17 18 18 20 21 20 20 21 22 20 17 16 13 12 10 9 9 7 6 5 5 4 3 3 3 3 3 3 2 2 1 1 1 1 1 1 1 2 2 2 3 2 3 4
19 20 19 20 21 18 18 19 20 21 21 21 21 21 21 20 17 13 11 9 9 8 6 5 5 4 3 3 3 3 3 3 3 2 1 1 1 1 1 1 0 1 1 0 1 2 3 2 3
18 17 18 20 20 17 18 18 20 20 20 19 17 14 13 14 16 13 10 8 8 7 7 5 5 4 3 3 4 4 3 3 2 1 1 1 1 1 1 1 1 1 0 0 1 1 2 1 1
17 17 18 18 18 17 16 17 19 16 14 13 12 10 9 10 13 12 10 8 7 7 6 5 4 4 3 3 4 3 3 2 2 1 1 0 0 -0 -0 0 0 0 1 0 0 0 1 2 1
16 15 15 14 14 16 16 16 20 17 14 11 9 8 7 8 10 10 9 8 7 6 6 5 4 3 3 3 3 3 2 2 2 1 1 -0 -0 -1 -1 -1 -0 -1 -1 -0 -1 -0 -0 1 2
14 13 13 13 14 14 15 14 17 17 14 7 5 5 5 5 7 7 7 6 6 5 5 4 3 3 3 3 2 3 3 3 2 1 0 -0 -1 -1 -2 -1 -1 -1 -1 -1 -1 -1 -1 -1 0
11 12 12 12 12 11 14 15 16 14 9 7 7 6 4 4 5 5 5 5 4 4 3 3 2 2 2 2 2 3 3 2 1 0 -0 -1 -1 -2 -2 -2 -2 -2 -2 -2 -2 -2 -2 -2 -1
10 12 13 11 10 14 13 13 13 9 6 6 5 4 3 3 5 4 4 4 3 3 3 2 2 2 1 2 2 3 2 1 1 0 -1 -1 -2 -2 -3 -3 -2 -2 -3 -3 -3 -3 -3 -3 -2
12 13 13 13 15 15 11 12 12 5 4 4 3 3 6 4 4 4 4 3 2 1 2 2 2 1 1 1 2 2 1 0 -0 -1 -1 -2 -2 -3 -3 -3 -4 -4 -4 -4 -4 -4 -3 -3 -3
11 11 10 11 13 11 13 11 8 7 7 6 6 7 7 6 4 4 4 3 3 1 1 1 2 1 1 1 1 0 -1 -1 -2 -2 -2 -2 -2 -3 -4 -4 -4 -4 -5 -5 -5 -4 -4 -4 -4
9 10 10 10 9 11 13 14 12 7 7 6 6 5 5 6 5 4 3 3 2 2 1 0 1 -0 0 0 -0 -1 -1 -2 -2 -2 -2 -3 -3 -3 -4 -5 -5 -5 -5 -5 -5 -5 -5 -4 -4
9 10 9 8 9 10 11 12 7 8 7 6 6 5 5 4 4 5 4 2 1 1 1 -0 -1 -2 -2 -2 -2 -2 -2 -2 -1 -2 -3 -3 -4 -4 -5 -5 -5 -5 -5 -5 -5 -4 -4 -5 -4
8 8 8 8 9 8 8 10 5 5 5 5 5 6 7 7 6 5 5 3 3 2 1 0 -1 -2 -2 -2 -2 -2 -3 -2 -3 -3 -4 -4 -4 -5 -5 -5 -5 -5 -5 -5 -5 -5 -5 -5 -5
Height
775 775 775 775 781 767 760 750 729 732 744 731 734 735 739 731 741 760 771 773 774 779 783 786 789 791 794 796 797 798 799 801 803 804 807 807 808 810 808 809 810 811 813 814 815 816 817 818 820
776 775 774 765 777 766 752 731 733 737 733 741 742 745 747 745 750 766 771 774 776 780 784 786 789 793 796 798 799 800 801 804 805 807 807 809 810 813 812 813 814 812 814 816 816 818 819 819 821
776 774 768 767 760 759 747 730 733 733 745 746 748 749 744 748 758 764 768 773 777 781 784 787 790 793 797 800 801 802 803 806 807 808 809 811 812 813 814 815 815 815 816 818 819 820 820 822 822
775 773 766 766 754 737 736 726 739 744 748 748 745 750 752 760 761 765 770 774 778 781 783 787 791 794 797 800 803 803 805 808 809 810 811 812 813 813 815 816 817 818 818 819 820 821 822 823 824
772 764 769 761 750 735 724 723 729 741 736 741 746 743 746 761 764 766 770 774 778 781 784 787 791 794 798 801 803 805 807 809 810 812 813 815 816 815 816 817 819 820 820 821 822 822 823 823 824
769 761 764 756 741 727 721 719 727 735 731 736 747 741 744 760 764 767 771 775 779 780 784 788 792 795 798 801 804 806 809 811 812 813 815 816 817 818 821 820 820 821 823 824 825 825 824 824 826
765 761 759 748 740 729 719 711 726 732 730 729 735 740 749 760 764 768 772 776 778 781 784 788 791 795 799 802 805 807 809 812 814 815 816 818 819 820 822 822 825 827 826 823 825 826 825 824 824
757 758 758 745 742 734 722 724 727 734 731 732 732 738 736 752 763 769 773 777 778 781 784 787 790 794 799 803 805 808 811 812 814 815 817 819 819 821 823 825 825 825 823 824 825 824 826 826 825
757 760 753 736 734 727 721 733 730 739 736 738 739 742 753 757 764 769 774 777 778 781 785 788 791 793 798 802 805 808 811 812 814 815 817 821 822 824 824 826 827 827 829 828 827 826 829 827 829
756 752 737 723 719 723 718 729 730 739 735 736 741 751 756 759 762 765 771 776 779 782 785 788 791 794 797 802 807 811 814 816 817 818 821 823 823 823 823 824 825 827 827 827 827 828 829 830 831
745 743 726 722 725 728 732 729 730 736 734 721 727 734 753 757 759 761 765 770 777 782 785 789 791 794 797 801 805 811 814 816 818 820 821 822 823 825 826 828 829 830 830 832 831 830 829 831 834
745 733 731 728 724 732 733 729 727 729 724 719 724 724 742 750 754 758 762 768 774 779 784 788 792 795 800 803 807 811 815 818 819 821 822 824 824 825 827 828 829 831 831 832 833 834 835 835 835
733 730 725 722 728 728 729 730 730 725 719 721 725 731 737 742 747 753 759 765 772 778 783 787 791 796 800 804 808 812 815 818 820 821 822 824 825 827 828 829 830 830 832 833 834 836 836 836 836
723 727 727 724 723 725 729 725 725 714 715 716 717 729 734 738 742 748 754 759 766 773 780 785 790 795 800 804 808 812 815 817 820 822 823 824 826 828 829 831 831 831 832 834 835 837 838 839 840
730 735 728 722 720 723 724 727 717 710 711 710 716 721 729 733 737 741 749 756 763 771 778 784 789 794 799 803 807 811 814 817 820 822 823 825 827 828 830 832 833 834 835 836 837 838 839 840 842
736 729 729 705 710 717 729 717 699 701 706 709 714 715 722 729 734 739 746 753 761 768 775 783 788 793 797 802 806 810 814 817 819 822 824 826 828 829 831 832 833 834 836 838 840 841 842 843 844
724 722 712 707 708 716 727 712 698 705 709 708 706 708 715 723 731 736 742 751 757 764 772 779 786 790 794 799 804 809 813 817 820 823 825 826 828 829 831 833 835 836 838 839 841 842 843 844 845
716 708 703 711 712 722 719 716 704 699 703 702 701 701 708 717 724 734 740 748 755 762 769 777 783 789 793 798 803 808 813 817 821 823 826 827 829 831 832 834 836 837 838 839 841 842 843 845 846
708 707 707 702 700 714 713 708 701 696 696 695 694 696 698 704 718 730 740 747 754 760 766 773 779 785 790 795 800 807 811 816 820 824 826 829 831 833 834 835 836 838 839 841 842 843 844 845 846
710 713 709 703 701 713 709 700 693 691 693 698 702 713 719 721 720 729 739 747 753 758 765 772 778 783 789 793 799 804 809 815 820 823 827 830 832 834 837 838 839 841 842 843 845 845 846 847 847
714 712 706 705 706 711 712 700 681 701 709 717 721 726 732 731 725 731 740 746 753 759 765 771 777 782 787 792 798 804 810 815 820 824 827 830 832 834 837 839 841 843 844 846 846 847 847 848 849
710 717 718 723 724 714 711 699 678 689 708 721 731 736 737 736 732 736 743 749 755 760 766 772 777 783 787 791 796 801 805 811 817 822 826 830 833 835 837 839 842 843 845 847 848 848 848 848 849
718 726 724 725 724 719 713 722 682 684 703 735 743 742 743 743 741 743 747 751 757 763 768 773 779 783 787 791 795 800 805 810 815 820 825 830 833 836 837 840 841 843 845 846 848 849 850 850 850
735 731 729 732 731 734 706 705 685 701 727 736 739 741 746 748 748 749 751 754 759 764 769 774 780 785 789 792 796 800 804 809 814 819 824 829 833 836 838 841 843 844 845 847 849 850 852 852 852
737 728 716 727 737 702 708 706 697 729 740 741 747 749 752 753 751 752 754 757 760 765 770 775 780 784 789 793 797 801 805 809 814 819 824 828 832 836 839 841 843 845 846 847 849 851 852 853 854
725 721 708 703 687 689 719 704 701 743 748 751 753 753 748 753 753 753 756 759 762 767 771 775 780 784 788 792 796 802 807 811 814 819 823 828 832 835 837 841 843 845 845 847 848 851 853 854 855
726 726 733 723 707 716 695 712 731 735 740 745 747 744 747 750 753 756 757 760 762 766 772 777 780 784 788 792 796 801 806 810 813 817 823 828 832 835 837 841 844 846 846 848 848 850 853 853 854
736 735 730 726 731 712 684 684 691 735 739 745 746 748 750 750 754 758 759 761 762 766 771 777 781 784 788 792 797 802 806 811 815 817 821 828 832 835 836 839 842 845 847 848 849 850 852 853 853
736 730 737 741 729 715 705 695 731 725 736 743 746 748 750 753 754 755 757 761 765 768 770 775 782 786 790 792 796 802 807 811 815 819 821 826 833 835 837 839 841 843 846 848 850 851 852 853 853
743 738 739 738 723 733 727 713 744 742 744 745 745 745 744 747 752 755 756 760 763 766 770 774 781 788 789 792 796 800 807 811 815 819 820 827 832 834 836 839 841 842 844 846 847 849 849 851 851
Wind_Speed
6 6 6 6 6 7 15 18 15 9 5 5 5 6 8 12 7 4 12 6 19 22 19 17 16 15 14 15 15 16 17 17 16 17 14 16 16 16 18 18 18 19 19 18 19 17 19 14 11
8 9 7 3 8 13 13 18 19 8 3 3 2 6 5 9 7 9 10 12 18 20 16 18 18 16 14 15 16 19 18 16 16 17 18 17 16 15 17 18 19 20 17 17 14 13 12 16 13
9 10 4 5 11 17 14 5 6 3 2 3 4 2 6 2 5 10 5 19 19 16 16 17 19 17 14 14 15 18 17 16 16 17 17 17 17 17 16 16 17 16 16 15 11 12 11 11 11
8 6 5 9 18 16 17 11 3 2 3 6 6 5 4 3 5 6 17 20 18 15 17 19 18 17 14 14 14 16 17 16 16 17 17 17 16 16 16 16 16 15 15 12 10 9 9 8 10
8 6 10 15 21 23 19 12 9 11 7 6 9 5 2 7 8 14 19 18 19 16 15 19 18 17 16 14 15 16 16 17 17 17 16 16 16 17 17 16 16 16 16 14 12 8 7 7 8
6 5 10 15 21 21 19 16 16 16 15 7 7 9 2 10 13 17 18 18 18 18 20 19 18 18 18 17 16 16 17 16 16 17 17 17 17 17 16 16 16 15 14 14 14 13 11 9 8
14 10 16 19 20 20 16 9 13 15 16 14 4 8 4 10 14 19 18 16 15 20 22 22 21 21 18 18 17 18 18 18 18 19 19 18 18 17 16 16 14 13 13 14 13 13 11 6 6
9 11 19 18 19 22 11 2 5 10 16 6 7 5 5 14 18 20 17 15 18 20 24 25 24 23 22 21 20 20 19 20 19 20 18 18 18 17 16 14 14 14 14 13 11 10 10 9 8
10 8 14 25 20 18 1 5 6 3 8 2 7 3 5 20 20 20 17 14 18 20 24 26 27 26 27 23 21 19 16 15 15 15 16 12 12 12 12 14 14 14 13 12 11 11 10 14 10
13 12 21 20 16 14 13 8 12 5 9 11 9 6 10 19 22 22 20 18 15 17 21 26 29 26 26 21 17 14 11 9 9 9 9 8 10 10 12 12 13 12 13 13 12 10 10 9 7
11 21 19 17 7 9 14 15 10 11 16 15 14 14 14 18 21 22 23 25 23 18 20 26 28 28 26 22 18 12 9 9 9 9 8 9 8 7 7 6 6 6 9 7 9 9 9 9 7
16 20 21 21 17 10 15 16 18 13 23 18 6 5 20 19 18 22 22 24 27 22 22 23 25 25 18 17 14 12 10 9 8 8 8 7 7 7 6 6 6 6 7 7 8 8 8 9 8
21 21 17 16 13 17 16 20 19 22 22 15 7 5 17 17 19 22 22 24 27 26 23 24 23 20 18 17 13 12 11 9 9 8 8 7 7 7 7 7 6 7 7 7 7 7 7 8 8
4 14 17 15 18 16 17 18 17 22 15 18 15 11 13 17 18 21 25 26 29 29 27 25 23 20 19 15 15 13 11 11 9 8 8 8 8 7 7 7 7 7 7 7 7 6 6 6 6
11 14 16 19 20 17 10 16 19 22 19 19 13 12 14 15 20 23 24 25 27 27 27 26 23 21 20 17 17 14 13 12 10 9 8 8 8 8 7 7 7 7 7 7 6 6 6 6 6
7 14 14 6 11 5 8 14 10 10 5 8 11 12 13 14 16 20 21 24 25 26 28 26 24 23 20 18 17 15 14 12 11 10 9 9 9 8 8 8 7 7 6 6 6 5 5 5 5
15 14 17 15 12 5 13 11 4 2 3 8 8 9 11 12 14 19 21 24 26 27 28 27 25 24 23 21 18 16 15 13 12 10 9 9 9 9 8 8 7 7 7 6 6 6 5 4 5
13 18 17 13 5 8 12 16 15 16 11 14 13 12 11 10 12 17 21 23 25 27 28 28 26 25 23 22 19 17 15 13 11 10 9 9 8 8 8 8 7 7 7 7 7 6 7 5 4
20 19 17 14 9 8 16 19 18 17 15 17 15 12 11 8 10 15 18 21 23 26 28 29 28 27 26 23 22 19 17 14 12 10 11 9 8 8 7 7 8 8 8 7 6 6 5 6 3
16 17 17 14 7 6 15 20 18 17 16 10 6 9 9 9 5 11 17 20 23 26 27 28 27 28 25 23 21 20 18 15 13 12 11 9 8 7 6 7 7 7 7 7 7 5 5 6 5
14 15 12 11 6 11 14 17 20 5 8 8 9 7 7 6 6 8 12 18 19 23 25 27 27 27 24 23 22 20 18 16 14 14 12 10 9 8 7 6 6 6 6 6 6 6 5 5 5
12 5 2 6 4 7 1 7 11 10 9 9 8 7 7 7 4 6 8 13 16 18 21 23 24 25 23 24 22 23 19 19 16 15 12 11 9 8 8 7 6 5 6 5 5 6 6 4 4
2 3 1 6 10 12 14 7 3 8 9 7 6 8 7 6 5 5 6 10 12 14 18 21 23 24 24 23 21 22 18 16 19 16 16 12 10 8 7 6 5 4 4 4 5 5 5 5 4
2 2 3 3 4 6 17 14 2 3 2 2 6 8 7 5 5 6 7 10 12 15 18 20 22 22 22 22 21 21 20 19 19 18 17 14 11 9 8 6 5 4 3 3 3 3 4 4 3
2 4 4 5 6 5 5 6 3 4 3 3 4 5 5 3 4 5 7 10 13 16 17 19 22 22 22 21 19 17 18 18 19 19 16 15 13 10 8 7 5 4 3 2 1 1 2 2 2
9 7 6 6 5 3 5 5 2 3 1 1 2 3 2 3 3 5 6 9 12 13 17 19 22 21 22 21 20 17 17 18 19 17 16 14 12 11 10 8 6 5 4 3 1 1 2 3 3
5 6 2 5 9 7 9 2 4 6 4 2 2 2 4 4 3 3 5 7 10 13 14 17 21 21 21 20 20 20 18 19 21 18 15 12 10 10 10 8 6 5 5 4 3 2 3 3 4
3 3 3 3 5 10 8 8 3 8 6 3 4 4 4 5 3 4 4 6 8 11 14 13 16 20 24 21 21 19 19 18 18 18 16 13 11 11 12 11 9 7 6 5 5 4 4 4 4
4 4 4 3 6 8 11 4 6 9 10 8 4 3 2 3 3 2 4 7 9 9 13 15 15 16 18 25 25 23 21 18 15 15 15 13 12 11 11 11 10 9 8 7 7 6 6 7 6
2 4 4 5 7 3 6 10 6 7 8 5 3 6 4 3 2 1 3 6 8 10 12 15 17 19 26 26 27 24 21 20 18 16 15 15 14 13 12 10 9 9 9 8 8 8 7 7 7
Wind_Direction
206 178 170 195 229 233 249 241 262 233 300 265 330 209 261 243 272 236 137 146 145 154 158 152 155 143 138 130 130 119 117 107 108 104 99 97 96 90 90 86 92 95 91 95 92 90 95 95 97
201 176 184 238 247 237 242 239 248 245 270 68 312 274 263 249 77 118 148 168 154 155 159 154 152 144 135 138 128 118 115 115 111 105 103 102 99 94 89 85 80 78 84 83 99 98 96 94 93
201 206 227 218 236 243 257 18 319 89 118 179 219 254 306 51 77 136 125 153 157 158 155 154 151 151 144 133 131 120 118 118 117 112 109 105 101 96 88 85 84 86 85 80 101 91 96 84 94
184 202 255 240 241 246 255 271 151 195 199 219 221 241 119 66 127 141 146 153 158 159 142 157 153 153 148 139 131 123 123 121 117 116 110 105 102 99 91 86 83 84 84 88 99 101 94 99 96
220 244 246 235 250 253 255 240 259 243 250 196 195 221 182 148 128 142 150 156 157 148 147 154 152 151 148 141 132 125 123 120 118 113 106 104 101 93 93 88 85 84 81 81 81 106 104 110 113
205 251 241 245 251 251 251 253 243 237 254 197 207 252 201 136 154 154 154 155 158 149 154 156 154 149 145 139 131 124 121 115 112 108 106 100 94 90 89 86 82 82 85 80 78 78 81 91 120
233 223 249 261 267 275 279 232 243 252 250 226 231 224 107 160 161 156 155 154 152 153 151 154 152 147 142 135 127 120 116 114 109 104 100 96 93 87 84 81 85 83 80 79 75 76 79 102 136
227 250 259 251 256 265 295 340 241 267 258 6 158 242 215 155 158 157 155 155 153 154 154 151 142 140 137 129 122 115 110 111 108 111 106 99 90 84 80 77 73 70 66 66 69 79 85 83 107
229 235 242 246 249 259 194 240 163 348 264 238 181 312 85 139 153 158 159 158 157 156 156 153 145 139 137 129 120 117 113 115 126 126 109 102 101 94 95 92 86 80 78 74 72 80 78 64 70
211 226 239 249 268 282 274 219 266 214 220 224 226 132 143 154 166 171 175 173 167 160 156 156 144 141 136 133 129 127 128 130 127 121 116 112 111 115 98 84 75 73 66 62 68 74 72 59 62
223 243 250 265 264 281 277 271 254 251 256 248 243 200 175 176 182 186 184 182 175 165 158 159 153 157 157 150 153 141 132 126 121 122 123 120 110 103 99 86 76 64 64 62 56 50 53 67 72
241 240 251 269 277 278 265 273 263 246 255 280 308 268 171 189 193 194 190 186 179 172 166 161 160 158 150 147 142 147 142 138 131 127 118 117 112 106 101 97 85 71 63 61 60 63 69 65 70
234 247 263 256 266 266 268 262 270 263 266 257 246 208 184 194 197 196 195 189 184 181 171 166 164 160 156 151 153 151 148 140 137 127 119 117 114 107 100 87 82 79 67 64 63 64 65 65 64
266 255 261 264 254 256 249 258 250 254 259 250 239 207 210 206 199 193 194 191 188 184 179 171 168 166 162 160 155 152 147 141 134 127 124 118 115 111 101 91 77 67 69 66 66 68 70 72 74
264 259 262 250 250 244 258 261 244 251 264 259 244 215 228 216 205 202 196 194 188 187 183 181 174 172 169 162 156 152 150 145 138 131 122 116 113 113 107 98 86 75 67 65 65 64 67 76 83
242 238 256 242 221 204 190 262 263 216 268 232 236 230 228 222 216 207 196 193 189 183 183 181 180 175 168 163 156 153 151 147 142 136 131 125 119 115 108 100 88 79 72 70 72 70 77 86 88
230 256 242 242 177 184 208 272 201 162 229 238 230 228 214 213 206 206 195 190 186 186 182 180 180 174 166 159 155 153 152 148 144 140 134 128 122 115 111 108 105 100 97 92 79 64 69 88 96
237 244 242 256 166 214 230 247 263 269 235 256 263 257 211 210 208 199 192 187 186 185 182 181 178 173 165 156 152 149 148 145 144 141 138 130 123 118 115 108 97 90 86 77 76 80 73 85 97
271 272 267 267 253 243 254 261 262 260 255 259 262 257 260 215 181 177 189 185 184 184 180 181 177 172 164 159 157 156 156 153 149 144 139 133 126 121 113 106 98 90 86 79 72 72 70 63 87
241 249 253 261 271 251 268 272 273 263 269 299 330 19 353 328 267 163 177 183 185 184 184 181 180 173 170 164 163 161 157 154 150 144 140 135 129 117 111 109 104 102 102 93 83 87 100 77 40
235 241 251 268 312 257 269 278 263 97 98 76 54 47 16 338 274 166 177 182 184 185 185 183 179 174 171 164 158 153 148 148 149 151 144 140 132 123 115 106 102 96 96 94 88 75 74 98 73
245 24 301 282 275 275 256 281 291 180 142 65 34 34 33 27 44 132 171 178 183 186 182 179 177 175 172 165 161 162 161 160 161 156 150 143 137 128 120 110 101 91 84 80 71 67 66 58 76
29 34 340 284 271 284 256 255 216 153 141 35 28 37 44 43 63 111 152 170 176 177 177 177 174 175 173 167 167 165 162 158 152 151 148 144 138 132 125 120 112 95 79 76 71 61 58 57 58
84 295 267 286 260 253 242 203 159 106 61 63 48 51 43 44 84 109 135 155 168 170 173 176 175 178 174 172 170 170 163 154 152 152 151 149 146 143 140 136 128 118 105 85 70 59 47 39 40
197 209 225 206 194 248 121 224 4 69 86 67 46 30 17 32 92 120 139 154 163 170 177 178 180 178 178 177 173 169 162 158 156 154 152 151 151 154 157 151 149 146 141 125 86 28 3 0 358
203 257 270 277 294 320 163 232 150 113 100 9 280 253 145 112 98 122 143 158 165 171 178 182 182 180 176 173 167 163 158 155 153 153 154 156 158 160 165 164 166 167 166 167 164 305 299 308 303
160 216 7 308 265 269 251 111 118 132 120 96 54 68 67 78 102 128 142 157 165 175 185 187 183 178 176 169 164 161 159 158 154 152 149 151 153 158 163 169 173 179 181 191 192 210 252 269 277
299 14 249 195 262 255 250 266 153 170 153 131 77 59 57 63 89 139 161 162 160 168 181 192 189 172 173 166 162 153 152 153 151 149 154 162 174 180 178 174 179 187 192 198 201 213 233 238 244
209 229 206 292 269 264 272 264 345 148 137 119 48 45 19 16 24 85 145 160 169 173 174 174 172 168 161 162 161 162 158 159 168 175 174 173 176 175 178 179 184 187 196 202 210 218 227 240 246
332 292 322 256 258 312 288 272 28 80 107 109 27 327 349 352 22 140 136 156 167 170 173 175 178 175 172 175 170 160 159 166 164 164 161 168 173 176 177 180 188 194 201 208 214 221 232 241 247